Tracking 19242 objects as of 16-Aug-2018
HD Live streaming from Space Station
objects crossing your sky now

FENGYUN 1C DEB

Track FENGYUN 1C DEB now!
10-day predictions


NORAD ID: 37456
Int'l Code: 1999-025EJA
Perigee: 596.1 km
Apogee: 759.9 km
Inclination: 98.9 °
Period: 98.2 minutes
Semi major axis: 7048 km
RCS: 0.0113 m2 (small)
Launch date: May 10, 1999
Source: People's Republic of China (PRC)
Launch site: Taiyaun Space Center, China (TSC)

Note: This is SATELLITE DEBRIS
aabbcc
Your satellite tracking list
Your tracking list is empty




NASA's NSSDC Master Catalog

Two Line Element Set (TLE):
1 37456U 99025EJA 18227.10646577  .00000714  00000-0  12566-3 0  9991
2 37456  98.9356 196.4999 0116188 130.6725 230.4645 14.66953042484339
Source of the keplerian elements: AFSPC